Weather History for Joplin, MO

Change the Weather History Date:

Wednesday, May 8, 2013

  Actual Average Record
Temperature  
Mean Temperature 66 °F 65 °F  
Max Temperature 78 °F 76 °F 91 °F (1952)
Min Temperature 54 °F 54 °F 35 °F (1976)
Degree Days  
Heating Degree Days 0 3  
Month to date heating degree days 105 28  
Since 1 July heating degree days 4209 4031  
Cooling Degree Days 1 3  
Month to date cooling degree days 6 20  
Year to date cooling degree days 36 74  
Growing Degree Days 16 (Base 50)    
Moisture  
Dew Point 54 °F    
Average Humidity 72    
Maximum Humidity 93    
Minimum Humidity 50    
Precipitation  
Precipitation 0.19 in 0.19 in 2.66 in (1961)
Month to date precipitation 1.52 1.55  
Year to date precipitation 16.02 13.79  
Snow  
Snow 0.00 in - - ()
Month to date snowfall 0.0  
Snow Depth 0.00 in    
Sea Level Pressure  
Sea Level Pressure 29.97 in    
Wind  
Wind Speed 8 mph (SSE)    
Max Wind Speed 21 mph    
Max Gust Speed 26 mph    
Visibility 10 miles    
Events Rain    
T = Trace of Precipitation, MM = Missing Value Source: NWS Daily Summary

Daily Weather History Graph

Daily Weather History Graph

Search for Another Location

Airport:

Trip Planner

Search our weather history database for the weather conditions in past years. The results will help you decide how hot, cold, wet, or windy it might be!

Date:

Astronomy

May. 08, 2013 Rise Set
Actual Time 6:15 AM CDT 8:13 PM CDT
Civil Twilight 5:47 AM CDT 8:42 PM CDT
Nautical Twilight 5:12 AM CDT 9:17 PM CDT
Astronomical Twilight 4:35 AM CDT 9:54 PM CDT
Moon 5:22 AM CDT (5/8) 7:13 PM CDT (5/8)
Length of Visible Light 14h 55m
Length of Day
13h 58m
Waning Crescent, 2% of the Moon is Illuminated
May 8
Waning Crescent
May 9
New
May 17
First Quarter
May 24
Full
May 31
Last Quarter

Hourly Weather History & Observations

Time (CDT) Temp. Dew Point Humidity Pressure Visibility Wind Dir Wind Speed Gust Speed Precip Events Conditions
12:53 AM 59.0 °F 50.0 °F 72% 29.99 in 10.0 mi SE 5.8 mph - N/A   Clear
1:53 AM 62.1 °F 50.0 °F 65% 29.98 in 10.0 mi SE 5.8 mph - N/A   Clear
2:53 AM 59.0 °F 48.9 °F 69% 29.97 in 10.0 mi SE 4.6 mph - N/A   Clear
3:53 AM 59.0 °F 48.9 °F 69% 29.96 in 10.0 mi SE 5.8 mph - N/A   Clear
4:53 AM 55.9 °F 48.9 °F 77% 29.95 in 10.0 mi SE 5.8 mph - N/A   Clear
5:53 AM 57.0 °F 48.9 °F 74% 29.97 in 10.0 mi SSE 4.6 mph - N/A   Mostly Cloudy
6:53 AM 55.0 °F 51.1 °F 86% 30.01 in 10.0 mi Calm Calm - N/A   Overcast
7:53 AM 57.0 °F 52.0 °F 83% 30.03 in 10.0 mi Calm Calm - 0.00 in Rain Light Rain
8:53 AM 57.9 °F 54.0 °F 87% 30.05 in 10.0 mi Calm Calm - 0.00 in   Mostly Cloudy
9:53 AM 57.9 °F 55.0 °F 90% 30.06 in 8.0 mi Calm Calm - 0.02 in Rain Light Rain
10:53 AM 60.1 °F 55.9 °F 86% 30.05 in 7.0 mi Calm Calm - 0.06 in Rain Light Rain
11:53 AM 60.1 °F 57.9 °F 93% 30.10 in 3.0 mi WNW 9.2 mph - 0.01 in Rain Rain
12:53 PM 59.0 °F 57.9 °F 96% 30.04 in 10.0 mi SE 10.4 mph - 0.10 in Rain Light Rain
1:53 PM 66.0 °F 59.0 °F 78% 29.94 in 10.0 mi SSE 17.3 mph 25.3 mph 0.00 in   Clear
2:53 PM 70.0 °F 59.0 °F 68% 29.95 in 10.0 mi SSE 19.6 mph 24.2 mph N/A   Clear
3:53 PM 73.0 °F 57.0 °F 57% 29.93 in 10.0 mi South 17.3 mph 23.0 mph N/A   Scattered Clouds
4:53 PM 75.0 °F 57.0 °F 53% 29.92 in 10.0 mi South 18.4 mph 25.3 mph N/A   Clear
5:53 PM 77.0 °F 57.9 °F 52% 29.90 in 10.0 mi South 10.4 mph - N/A   Clear
6:53 PM 75.0 °F 55.0 °F 50% 29.88 in 10.0 mi South 9.2 mph - N/A   Clear
7:53 PM 72.0 °F 54.0 °F 53% 29.88 in 10.0 mi South 6.9 mph - N/A   Clear
8:53 PM 70.0 °F 53.1 °F 55% 29.88 in 10.0 mi SSE 6.9 mph - N/A   Clear
9:53 PM 69.1 °F 54.0 °F 58% 29.91 in 10.0 mi SE 5.8 mph - N/A   Clear
10:53 PM 66.0 °F 55.0 °F 68% 29.94 in 10.0 mi South 4.6 mph - 0.00 in Rain Light Rain
11:53 PM 64.9 °F 57.9 °F 78% 29.93 in 10.0 mi South 8.1 mph - 0.00 in   Mostly Cloudy